Lexington Weather

Lexington, Massachusetts, USA

44°F
9/20/2020 10:33pm 
  • Lexington Conditions: Clear
  • Temperature: 43.5°F / 6.4°CColder 0.9°F than last hour.
  • Dew Point: 37.0°FDecreased 0.4°Fsince last hour.
  • Relative Humidity: 78%Increased 2.0% since last hour.
  • Wind: Calm, 10-min avg: Calm, gust: None
  • Barometer: 30.52 in Steady
  • Visibility: 10 miles
  • Rain Today: 0.00 in
  •   
Southeast Middlesex County - Special Weather Statement - Special Weather Statement
 - SEE ALL NEARBY ALERTS -

Regional Weather Roundup
for Boston / Norton, MA

        
000
ASUS41 KBOX 162004
RWRBOX

REGIONAL WEATHER ROUNDUP
NATIONAL WEATHER SERVICE BOSTON/NORTON MA
400 PM EDT WED SEP 16 2020

NOTE:  "FAIR" INDICATES FEW OR NO CLOUDS BELOW 12,000 FEET WITH NO 
SIGNIFICANT WEATHER AND/OR OBSTRUCTIONS TO VISIBILITY.

MAZALL-162100-
EASTERN MASSACHUSETTS
  
CITY           SKY/WX    TMP DP  RH WIND       PRES   REMARKS
BOSTON         PTSUNNY   72  53  51 S20       30.11F                  
BEVERLY        SUNNY     74  50  42 SW14      30.09F                  
LAWRENCE       SUNNY     73  53  49 SW14G21   30.11F                  
BEDFORD        SUNNY     74  52  46 SW16G22   30.09F                  
BLUE HILL        N/A     69  53  56 S15G24    30.12F                  
NORWOOD        SUNNY     74  52  46 S14G22    30.12F                  
MARSHFIELD     SUNNY     73  55  53 SW14G24   30.13F                  
PLYMOUTH       SUNNY     70  54  56 SW18G28   30.15F                  
TAUNTON        SUNNY     71  53  52 SW15G24   30.16F                  
NEW BEDFORD    SUNNY     70  55  59 SW18G29   30.16F                  
$$

MAZALL-162100-
CAPE COD AND THE ISLANDS
  
CITY           SKY/WX    TMP DP  RH WIND       PRES   REMARKS
FALMOUTH       NOT AVBL                                               
HYANNIS        MOSUNNY   70  56  61 SW15      30.16F                  
CHATHAM        SUNNY     69  56  62 SW12G23   30.20F                  
PROVINCETOWN   SUNNY     68  59  73 SW17G23   30.16F                  
NANTUCKET      SUNNY     67  59  75 S15       30.20F                  
MARTHAS VNYRD  SUNNY     70  56  61 SW18      30.19F                  
$$
 
MAZALL-162100-
CENTRAL AND WESTERN MASSACHUSETTS
  
CITY           SKY/WX    TMP DP  RH WIND       PRES   REMARKS
WORCESTER      SUNNY     69  52  54 SW10      30.14F                  
FITCHBURG      SUNNY     74  50  42 S15G23    30.11F                  
ORANGE         SUNNY     72  50  45 S13G21    30.12F                  
SPRINGFIELD    MOSUNNY   73  51  46 S8G21     30.11F                  
WESTFIELD      SUNNY     73  51  46 S18       30.11F                  
NORTH ADAMS    SUNNY     71  43  36 SW14      30.09F                  
PITTSFIELD     SUNNY     68  46  45 SW8       30.11F                  
$$
 
RIZALL-162100-
RHODE ISLAND
  
CITY           SKY/WX    TMP DP  RH WIND       PRES   REMARKS
PROVIDENCE     MOSUNNY   72  54  53 S20G26    30.16F                  
NEWPORT        MOSUNNY   69  55  60 SW10G20   30.18F                  
BLOCK ISLAND   PTSUNNY   69  57  65 SW12      30.19F                  
SMITHFIELD     SUNNY     70  53  54 VRB7G17   30.15F                  
WESTERLY       SUNNY     70  54  56 S10G24    30.19F                  
$$
 
CTZALL-162100-
CONNECTICUT
  
CITY           SKY/WX    TMP DP  RH WIND       PRES   REMARKS
BRADLEY INTL   PTSUNNY   73  51  46 S17       30.13F                  
HARTFORD       SUNNY     73  53  49 S16G22    30.14F                  
BRIDGEPORT     PTSUNNY   72  55  55 SW14      30.16F                  
DANBURY        SUNNY     69  52  54 S12       30.17F                  
GROTON         PTSUNNY   69  56  62 SW15      30.17F                  
NEW HAVEN      PTSUNNY   72  56  57 SW12      30.17F                  
CHESTER        NOT AVBL                                               
MERIDEN        PTSUNNY   70  53  54 S14       30.15F                  
WILLIMANTIC    MOSUNNY   71  53  52 S14G22    30.15F                  
OXFORD         MOSUNNY   68  55  63 S13G20    30.17F                  
$$

MEZ002-015-021-024-NHZ003-005-008-011-012-014-VTZ005-008-162100-
NORTHERN NEW ENGLAND
  
CITY           SKY/WX    TMP DP  RH WIND       PRES   REMARKS
PORTLAND ME    SUNNY     71  54  54 S15G23    30.04F                  
BANGOR ME      MOSUNNY   70  52  52 S17       30.00F                  
CONCORD NH     SUNNY     75  44  33 S15       30.06F                  
MANCHESTER NH  MOSUNNY   75  47  36 SW12G20   30.07F                  
NASHUA NH      SUNNY     74  52  46 VRB6      30.10F                  
PORTSMOUTH NH  SUNNY     74  47  38 SW14      30.06F                  
JAFFREY NH     SUNNY     69  48  47 SW14G20   30.12F                  
KEENE NH       SUNNY     71  49  45 S15G24    30.09F                  
BURLINGTON VT  MOSUNNY   73  39  29 S16G32    29.95F                  
MT. WASHINGTON PTSUNNY   54  21  28 W38G47      N/A                   
$$

NYZ052-076-162100-
EASTERN NEW YORK
  
CITY           SKY/WX    TMP DP  RH WIND       PRES   REMARKS
ALBANY         PTSUNNY   67  46  47 S21       30.07F                  
NEW YORK CITY  CLOUDY    72  53  51 S15       30.15F                  
$$
 
ANZALL-162100-
MARINE OBSERVATIONS
  
STATION/POSITION TIME  TEMP    WIND        PRES    VSBY  WAVE
                       AIR SEA DIR/SP/G                  HT/PER
                 (UTC) (F)     (DEG/KT/KT) (MB)    (MI)  (FT/S)
BOSTON BUOY      1950   68 65  200/ 17/ 21 1018.8F         3/ 4
BUZZARDS BAY     1900          220/ 18/ 20 1023.2F
NANTUCKET SOUND  1940      70  200/ 17/ 19   N/A
MASS BAY-STELLWA 1904   66     230/ 16/ 17 1018.2F  1 7/8  3/ 4
ISLE OF SHOALS   1900   66     200/ 18/ 20 1018.9F
S OF BLOCK IS    1926      70                N/A           4/10
$$

......................KEY.........................
  SKY/WX - SKY CONDITION/PRESENT WEATHER
  TMP    - TEMPERATURE IN FAHRENHEIT
  DWPT   - DEWPOINT IN FAHRENHEIT
  RH     - RELATIVE HUMIDITY IN PERCENT
  WIND   - DIRECTION AND SPEED IN MPH
  PRES   - MEAN SEA LEVEL PRESSURE IN INCHES OF HG
  WCI    - WIND CHILL INDEX
  VSB    - VISIBILITY IN MILES
  HX     - HEAT INDEX
  TC     - TEMPERATURE IN CELSIUS
  VRB    - VARIABLE WIND DIRECTION
  N/A    - NOT AVAILABLE
  
      

Other recent Regional Weather Roundups

Sun Sep 20, 10:04pm

Sun Sep 20, 9:04pm

Sun Sep 20, 8:05pm

Sun Sep 20, 7:04pm

Sun Sep 20, 6:04pm

Sun Sep 20, 5:04pm

Sun Sep 20, 4:04pm

Sun Sep 20, 3:05pm

Sun Sep 20, 2:05pm

Sun Sep 20, 1:04pm

Sun Sep 20, 12:04pm

Sun Sep 20, 11:04am

Sun Sep 20, 10:04am

Sun Sep 20, 9:04am

Sun Sep 20, 8:04am

Sun Sep 20, 7:04am

Sun Sep 20, 6:04am

Sun Sep 20, 5:04am

Sun Sep 20, 4:04am

Sun Sep 20, 3:05am

Sun Sep 20, 2:04am

Sun Sep 20, 1:04am

Sun Sep 20, 12:04am

Sat Sep 19, 11:04pm

Sat Sep 19, 10:04pm

Sat Sep 19, 9:04pm

Sat Sep 19, 8:05pm

Sat Sep 19, 7:04pm

Sat Sep 19, 6:05pm

Sat Sep 19, 5:04pm

Sat Sep 19, 4:04pm

Sat Sep 19, 3:04pm

Sat Sep 19, 2:04pm

Sat Sep 19, 1:05pm

Sat Sep 19, 12:04pm

Sat Sep 19, 11:04am

Sat Sep 19, 10:04am

Sat Sep 19, 9:05am

Sat Sep 19, 8:04am

Sat Sep 19, 7:04am

Sat Sep 19, 6:04am

Sat Sep 19, 5:04am

Sat Sep 19, 4:04am

Sat Sep 19, 3:04am

Sat Sep 19, 2:04am

Sat Sep 19, 1:04am

Sat Sep 19, 12:04am

Fri Sep 18, 11:05pm

Fri Sep 18, 10:04pm

Fri Sep 18, 9:04pm

Fri Sep 18, 8:04pm

Fri Sep 18, 7:04pm

Fri Sep 18, 6:04pm

Fri Sep 18, 5:05pm

Fri Sep 18, 4:04pm

Fri Sep 18, 3:05pm

Fri Sep 18, 2:04pm

Fri Sep 18, 1:04pm

Fri Sep 18, 12:04pm

Fri Sep 18, 11:05am

Fri Sep 18, 10:05am

Fri Sep 18, 9:04am

Fri Sep 18, 8:04am

Fri Sep 18, 7:04am

Fri Sep 18, 6:04am

Fri Sep 18, 5:04am

Fri Sep 18, 4:04am

Fri Sep 18, 3:04am

Fri Sep 18, 2:04am

Fri Sep 18, 1:04am

Fri Sep 18, 12:04am

Thu Sep 17, 11:05pm

Thu Sep 17, 10:04pm

Thu Sep 17, 9:04pm

Thu Sep 17, 8:05pm

Thu Sep 17, 7:04pm

Thu Sep 17, 6:04pm

Thu Sep 17, 5:04pm

Thu Sep 17, 4:04pm

Thu Sep 17, 3:05pm

Thu Sep 17, 2:04pm

Thu Sep 17, 1:04pm

Thu Sep 17, 12:04pm

Thu Sep 17, 11:04am

Thu Sep 17, 10:04am

Thu Sep 17, 9:04am

Thu Sep 17, 8:04am

Thu Sep 17, 7:04am

Thu Sep 17, 6:04am

Thu Sep 17, 5:04am

Thu Sep 17, 4:04am

Thu Sep 17, 3:04am

Thu Sep 17, 2:05am

Thu Sep 17, 1:05am

Thu Sep 17, 12:04am

Wed Sep 16, 11:04pm

Wed Sep 16, 10:04pm

Wed Sep 16, 9:04pm

Wed Sep 16, 8:05pm

Wed Sep 16, 7:04pm

Wed Sep 16, 6:04pm

Wed Sep 16, 5:04pm

Wed Sep 16, 3:04pm

Wed Sep 16, 2:04pm

Wed Sep 16, 1:04pm

Wed Sep 16, 12:04pm

Wed Sep 16, 11:04am

Wed Sep 16, 10:04am

Wed Sep 16, 9:04am

Wed Sep 16, 8:04am

Wed Sep 16, 7:04am

Wed Sep 16, 6:04am

Wed Sep 16, 5:04am

Wed Sep 16, 4:04am

Wed Sep 16, 3:04am

Wed Sep 16, 2:04am

Wed Sep 16, 1:04am

Wed Sep 16, 12:05am

Tue Sep 15, 11:04pm

Tue Sep 15, 10:04pm

Tue Sep 15, 9:04pm

Tue Sep 15, 8:04pm

Tue Sep 15, 7:04pm

Tue Sep 15, 6:04pm

Tue Sep 15, 5:04pm

Tue Sep 15, 4:05pm

Tue Sep 15, 3:04pm

Tue Sep 15, 2:04pm

Tue Sep 15, 1:04pm

Tue Sep 15, 12:04pm

Tue Sep 15, 11:04am

Tue Sep 15, 10:04am

Tue Sep 15, 9:04am

Tue Sep 15, 8:04am

Tue Sep 15, 7:04am

Tue Sep 15, 6:04am

Tue Sep 15, 5:04am

Tue Sep 15, 4:04am

Tue Sep 15, 3:04am

Tue Sep 15, 2:04am

Tue Sep 15, 1:04am

Tue Sep 15, 12:05am

Mon Sep 14, 11:04pm

Mon Sep 14, 10:04pm

Mon Sep 14, 9:04pm

Mon Sep 14, 8:04pm

Mon Sep 14, 7:04pm

Mon Sep 14, 6:04pm

Mon Sep 14, 5:04pm

Mon Sep 14, 4:05pm

Mon Sep 14, 3:04pm

Mon Sep 14, 2:05pm

Mon Sep 14, 1:04pm

Mon Sep 14, 12:04pm

Mon Sep 14, 11:04am

Mon Sep 14, 10:05am

Mon Sep 14, 9:04am

Mon Sep 14, 8:04am

Mon Sep 14, 7:04am

Mon Sep 14, 6:04am

Mon Sep 14, 5:04am

Mon Sep 14, 4:04am

Mon Sep 14, 3:04am

Mon Sep 14, 2:04am

Mon Sep 14, 1:04am

Mon Sep 14, 12:04am

Sun Sep 13, 11:05pm

Meta data:

ID: df25298b-91a7-4b7c-bd67-55834b04afa5
Link: https://api.weather.gov/products/df25298b-91a7-4b7c-bd67-55834b04afa5